Location: Unspecified
(0.0000°N, 0.0000°E)
Time: 07:15:35
(UTC+00:00)

SR - Pass Details

Date: 22 December 2018
Orbit: 582 x 874 km, 66.7° (Epoch: 19 June)

Event Time Altitude Azimuth Distance (km) Brightness Sun altitude
Rises 23:07:47 0° 214° (SW) 3,443 - -63.5°
Reaches altitude 10° 23:10:24 10° 222° (SW) 2,516 - -63.8°
Maximum altitude 23:15:51 40° 289° (WNW) 1,267 - -64.3°
Drops below altitude 10° 23:21:13 10° 358° (N) 2,477 - -64.9°
Sets 23:23:48 0° 5° (N) 3,384 - -65.1°
